RYR4KB EDDB-EDDM

Flight info

Callsign RYR4KB
Flight time 0h 48m
Altitude 28000
Route LUROS4B/06L LUROS Y211 BEBKU Z36 MAREM DCT VESUB T106 TUSTO T108 LANDU LANDU2B
Aircraft B738/M-SDE2E3FGHIRWXY/LB1

Departure

Time 2026-05-05 13:45
Airport Berlin Brandenburg Airport (EDDB)

Arrival

Time 2026-05-05 14:33
Airport Munich Airport (EDDM)
Time Latitude Longitude Altitude Speed Heading
2026-05-05 13:18 52.36476 13.50075 153 ft 0 kts 248°
2026-05-05 13:31 52.36483 13.50105 154 ft 4 kts 249°
2026-05-05 13:32 52.36491 13.50147 154 ft 4 kts 261°
2026-05-05 13:32 52.36491 13.50189 154 ft 4 kts 288°
2026-05-05 13:32 52.36478 13.50221 154 ft 3 kts 337°
2026-05-05 13:32 52.36471 13.50225 154 ft 0 kts 339°
2026-05-05 13:37 52.36472 13.50225 154 ft 0 kts 339°
2026-05-05 13:37 52.36503 13.50237 154 ft 9 kts 17°
2026-05-05 13:37 52.36571 13.50238 154 ft 10 kts 339°
2026-05-05 13:38 52.36636 13.50195 154 ft 10 kts 339°
2026-05-05 13:38 52.36696 13.50147 154 ft 10 kts 324°
2026-05-05 13:38 52.36741 13.50067 154 ft 9 kts 320°
2026-05-05 13:38 52.36781 13.49990 154 ft 9 kts 283°
2026-05-05 13:39 52.36764 13.49886 154 ft 11 kts 249°
2026-05-05 13:39 52.36731 13.49746 154 ft 14 kts 248°
2026-05-05 13:39 52.36691 13.49578 155 ft 17 kts 249°
2026-05-05 13:39 52.36650 13.49404 154 ft 16 kts 250°
2026-05-05 13:40 52.36611 13.49238 153 ft 15 kts 248°
2026-05-05 13:40 52.36573 13.49077 153 ft 15 kts 249°
2026-05-05 13:40 52.36536 13.48925 153 ft 14 kts 248°
2026-05-05 13:40 52.36501 13.48778 153 ft 14 kts 249°
2026-05-05 13:41 52.36468 13.48638 153 ft 13 kts 249°
2026-05-05 13:41 52.36436 13.48499 153 ft 12 kts 255°
2026-05-05 13:41 52.36474 13.48395 153 ft 12 kts 339°
2026-05-05 13:41 52.36538 13.48356 153 ft 6 kts 339°
2026-05-05 13:42 52.36542 13.48354 153 ft 0 kts 339°
2026-05-05 13:42 52.36589 13.48326 153 ft 14 kts 340°
2026-05-05 13:42 52.36688 13.48289 153 ft 16 kts 10°
2026-05-05 13:43 52.36734 13.48348 153 ft 0 kts 68°
2026-05-05 13:43 52.36734 13.48349 153 ft 0 kts 68°
2026-05-05 13:44 52.36738 13.48365 153 ft 12 kts 68°
2026-05-05 13:44 52.36883 13.48971 154 ft 101 kts 69°
2026-05-05 13:44 52.37241 13.50445 226 ft 169 kts 67°
2026-05-05 13:45 52.37678 13.52239 1276 ft 164 kts 68°
2026-05-05 13:45 52.38087 13.53997 2280 ft 174 kts 68°
2026-05-05 13:45 52.38558 13.56008 2829 ft 206 kts 69°
2026-05-05 13:45 52.39096 13.58411 3067 ft 240 kts 68°
2026-05-05 13:46 52.39703 13.60975 3693 ft 251 kts 67°
2026-05-05 13:46 52.40353 13.63709 4211 ft 266 kts 68°
2026-05-05 13:46 52.41040 13.66606 4879 ft 277 kts 68°
2026-05-05 13:46 52.41746 13.69592 5761 ft 282 kts 68°
2026-05-05 13:47 52.42455 13.72602 6697 ft 284 kts 69°
2026-05-05 13:47 52.43083 13.75687 7489 ft 291 kts 82°
2026-05-05 13:47 52.42835 13.78946 8301 ft 292 kts 116°
2026-05-05 13:48 52.40096 13.82816 9892 ft 287 kts 165°
2026-05-05 13:48 52.38123 13.83397 10406 ft 298 kts 179°
2026-05-05 13:48 52.35955 13.83543 10594 ft 323 kts 181°
2026-05-05 13:48 52.33621 13.83594 10777 ft 347 kts 182°
2026-05-05 13:49 52.31132 13.83633 11034 ft 366 kts 182°
2026-05-05 13:49 52.28555 13.83688 11643 ft 373 kts 181°
2026-05-05 13:49 52.25951 13.83765 12415 ft 375 kts 181°
2026-05-05 13:49 52.23337 13.83856 13193 ft 377 kts 181°
2026-05-05 13:50 52.20700 13.83958 13877 ft 381 kts 181°
2026-05-05 13:50 52.18035 13.84066 14478 ft 385 kts 181°
2026-05-05 13:50 52.15345 13.84178 15102 ft 389 kts 181°
2026-05-05 13:50 52.12665 13.84291 15681 ft 393 kts 181°
2026-05-05 13:51 52.09888 13.84410 15823 ft 393 kts 181°
2026-05-05 13:51 52.07168 13.84525 16076 ft 400 kts 181°
2026-05-05 13:51 52.04379 13.84639 16745 ft 400 kts 182°
2026-05-05 13:51 52.01598 13.84745 17494 ft 400 kts 182°
2026-05-05 13:52 51.98802 13.84851 18065 ft 404 kts 182°
2026-05-05 13:52 51.95975 13.84961 18545 ft 408 kts 182°
2026-05-05 13:52 51.93173 13.85075 19049 ft 410 kts 182°
2026-05-05 13:52 51.90312 13.85195 19595 ft 412 kts 182°
2026-05-05 13:53 51.87436 13.85318 20116 ft 414 kts 182°
2026-05-05 13:53 51.84545 13.85442 20619 ft 417 kts 181°
2026-05-05 13:53 51.81637 13.85568 21103 ft 419 kts 181°
2026-05-05 13:53 51.78708 13.85694 21580 ft 422 kts 181°
2026-05-05 13:54 51.75762 13.85820 22048 ft 424 kts 181°
2026-05-05 13:54 51.72800 13.85947 22504 ft 427 kts 181°
2026-05-05 13:54 51.69821 13.86074 22940 ft 429 kts 181°
2026-05-05 13:54 51.66830 13.86202 23422 ft 430 kts 181°
2026-05-05 13:55 51.63834 13.86330 23786 ft 432 kts 181°
2026-05-05 13:55 51.60812 13.86458 24123 ft 435 kts 181°
2026-05-05 13:55 51.57779 13.86587 24467 ft 437 kts 181°
2026-05-05 13:55 51.54772 13.86715 24813 ft 439 kts 181°
2026-05-05 13:56 51.51704 13.86845 25154 ft 441 kts 181°
2026-05-05 13:56 51.48625 13.86975 25475 ft 444 kts 181°
2026-05-05 13:56 51.45538 13.86994 25771 ft 444 kts 186°
2026-05-05 13:56 51.42478 13.86336 26094 ft 443 kts 193°
2026-05-05 13:57 51.39446 13.85406 26410 ft 444 kts 193°
2026-05-05 13:57 51.36405 13.84471 26701 ft 446 kts 193°
2026-05-05 13:57 51.33342 13.83546 26996 ft 448 kts 193°
2026-05-05 13:57 51.30275 13.82637 27406 ft 448 kts 193°
2026-05-05 13:58 51.27221 13.81747 27874 ft 446 kts 193°
2026-05-05 13:58 51.24176 13.80869 28343 ft 444 kts 193°
2026-05-05 13:58 51.21138 13.79995 28727 ft 444 kts 193°
2026-05-05 13:58 51.18096 13.79121 29040 ft 445 kts 193°
2026-05-05 13:59 51.12016 13.77379 29905 ft 443 kts 193°
2026-05-05 13:59 51.08991 13.76514 30311 ft 441 kts 193°
2026-05-05 14:00 51.02969 13.74793 31057 ft 438 kts 193°
2026-05-05 14:00 51.00980 13.74224 31273 ft 438 kts 193°
2026-05-05 14:00 50.96975 13.73083 31700 ft 437 kts 193°
2026-05-05 14:00 50.94012 13.72239 31820 ft 440 kts 192°
2026-05-05 14:01 50.87963 13.70422 31810 ft 441 kts 196°
2026-05-05 14:01 50.82100 13.67764 31809 ft 435 kts 199°
2026-05-05 14:02 50.76294 13.65047 31791 ft 435 kts 198°
2026-05-05 14:02 50.70466 13.62427 31796 ft 435 kts 199°
2026-05-05 14:03 50.64684 13.59591 31800 ft 436 kts 200°
2026-05-05 14:03 50.58908 13.56660 31806 ft 438 kts 200°
2026-05-05 14:04 50.53089 13.53721 31779 ft 439 kts 200°
2026-05-05 14:04 50.47265 13.50812 31777 ft 439 kts 200°
2026-05-05 14:05 50.41477 13.47941 31786 ft 439 kts 200°
2026-05-05 14:05 50.35647 13.45060 31780 ft 438 kts 200°
2026-05-05 14:06 50.29825 13.42190 31780 ft 437 kts 200°
2026-05-05 14:06 50.24027 13.39338 31774 ft 437 kts 200°
2026-05-05 14:07 50.18232 13.36495 31773 ft 436 kts 200°
2026-05-05 14:07 50.12435 13.33658 31774 ft 436 kts 200°
2026-05-05 14:08 50.06637 13.30827 31761 ft 436 kts 199°
2026-05-05 14:08 50.00849 13.28009 31760 ft 436 kts 199°
2026-05-05 14:09 49.95059 13.25197 31766 ft 436 kts 199°
2026-05-05 14:09 49.89307 13.22410 31783 ft 436 kts 199°
2026-05-05 14:10 49.83514 13.19610 31791 ft 436 kts 199°
2026-05-05 14:10 49.77714 13.16815 31801 ft 435 kts 199°
2026-05-05 14:11 49.71927 13.14032 31775 ft 435 kts 199°
2026-05-05 14:11 49.66142 13.11257 31753 ft 434 kts 199°
2026-05-05 14:12 49.60409 13.08514 31609 ft 435 kts 199°
2026-05-05 14:12 49.57503 13.07125 30922 ft 437 kts 199°
2026-05-05 14:12 49.54596 13.05738 30191 ft 436 kts 199°
2026-05-05 14:13 49.51699 13.04358 29344 ft 436 kts 199°
2026-05-05 14:13 49.48795 13.02975 28435 ft 436 kts 199°
2026-05-05 14:13 49.45895 13.01597 27543 ft 436 kts 198°
2026-05-05 14:13 49.42992 13.00217 26621 ft 437 kts 198°
2026-05-05 14:14 49.40135 12.98594 25792 ft 436 kts 204°
2026-05-05 14:14 49.37436 12.96622 25054 ft 433 kts 206°
2026-05-05 14:14 49.34743 12.94577 24381 ft 430 kts 206°
2026-05-05 14:14 49.32074 12.92562 23725 ft 427 kts 206°
2026-05-05 14:15 49.29412 12.90585 23031 ft 424 kts 205°
2026-05-05 14:15 49.26762 12.88647 22320 ft 420 kts 205°
2026-05-05 14:15 49.24140 12.86743 21659 ft 415 kts 205°
2026-05-05 14:15 49.21545 12.84862 20968 ft 411 kts 205°
2026-05-05 14:16 49.18959 12.82989 20261 ft 409 kts 205°
2026-05-05 14:16 49.16403 12.81138 19629 ft 405 kts 205°
2026-05-05 14:16 49.13863 12.79299 18994 ft 402 kts 205°
2026-05-05 14:16 49.11348 12.77480 18390 ft 398 kts 205°
2026-05-05 14:17 49.08857 12.75681 17754 ft 395 kts 205°
2026-05-05 14:17 49.06385 12.73900 17076 ft 391 kts 205°
2026-05-05 14:17 49.03937 12.72142 16435 ft 387 kts 205°
2026-05-05 14:17 49.01504 12.70399 15823 ft 384 kts 205°
2026-05-05 14:18 48.99091 12.68671 15224 ft 381 kts 205°
2026-05-05 14:18 48.96703 12.66962 14642 ft 378 kts 205°
2026-05-05 14:18 48.94329 12.65265 14058 ft 376 kts 205°
2026-05-05 14:18 48.91967 12.63578 13478 ft 374 kts 205°
2026-05-05 14:19 48.89618 12.61903 12791 ft 372 kts 205°
2026-05-05 14:19 48.87275 12.60238 12144 ft 371 kts 205°
2026-05-05 14:19 48.84950 12.58587 11547 ft 367 kts 205°
2026-05-05 14:19 48.82643 12.56951 10970 ft 364 kts 205°
2026-05-05 14:20 48.80384 12.55351 10774 ft 351 kts 205°
2026-05-05 14:20 48.78209 12.53812 10608 ft 338 kts 205°
2026-05-05 14:20 48.76106 12.52350 10466 ft 326 kts 202°
2026-05-05 14:20 48.74021 12.51170 10336 ft 315 kts 199°
2026-05-05 14:21 48.71978 12.50115 10198 ft 305 kts 199°
2026-05-05 14:21 48.69997 12.49091 10074 ft 295 kts 199°
2026-05-05 14:21 48.68086 12.48085 9953 ft 286 kts 199°
2026-05-05 14:21 48.66238 12.47103 9841 ft 278 kts 200°
2026-05-05 14:22 48.64440 12.46145 9727 ft 270 kts 200°
2026-05-05 14:22 48.62690 12.45150 9427 ft 269 kts 207°
2026-05-05 14:22 48.61315 12.43346 9159 ft 267 kts 235°
2026-05-05 14:22 48.60553 12.40800 8893 ft 268 kts 256°
2026-05-05 14:23 48.60306 12.38006 8631 ft 267 kts 262°
2026-05-05 14:23 48.60187 12.36120 8438 ft 266 kts 262°
2026-05-05 14:23 48.60007 12.33376 8171 ft 264 kts 262°
2026-05-05 14:23 48.59822 12.30655 7897 ft 256 kts 262°
2026-05-05 14:24 48.59393 12.28115 7608 ft 245 kts 237°
2026-05-05 14:24 48.58288 12.26276 7405 ft 232 kts 218°
2026-05-05 14:24 48.56964 12.24969 7187 ft 222 kts 210°
2026-05-05 14:24 48.55651 12.23855 6955 ft 211 kts 209°
2026-05-05 14:25 48.54400 12.22808 6726 ft 202 kts 208°
2026-05-05 14:25 48.53189 12.21789 6507 ft 197 kts 209°
2026-05-05 14:25 48.52003 12.20784 6301 ft 195 kts 210°
2026-05-05 14:25 48.50834 12.19788 6151 ft 190 kts 209°
2026-05-05 14:26 48.49704 12.18822 6037 ft 188 kts 210°
2026-05-05 14:26 48.48566 12.17847 5967 ft 182 kts 210°
2026-05-05 14:26 48.47490 12.16923 5881 ft 174 kts 209°
2026-05-05 14:26 48.46429 12.16012 5808 ft 176 kts 210°
2026-05-05 14:27 48.45368 12.15098 5757 ft 179 kts 211°
2026-05-05 14:27 48.44275 12.14158 5686 ft 182 kts 210°
2026-05-05 14:27 48.43151 12.13193 5523 ft 190 kts 211°
2026-05-05 14:27 48.42001 12.12203 5343 ft 187 kts 211°
2026-05-05 14:28 48.40915 12.11268 5323 ft 175 kts 211°
2026-05-05 14:28 48.39850 12.10352 5189 ft 178 kts 212°
2026-05-05 14:28 48.38971 12.09047 5010 ft 183 kts 250°
2026-05-05 14:28 48.38715 12.07123 4697 ft 198 kts 260°
2026-05-05 14:29 48.38506 12.05137 4426 ft 187 kts 263°
2026-05-05 14:29 48.38341 12.03247 4190 ft 178 kts 262°
2026-05-05 14:29 48.38194 12.01437 3937 ft 170 kts 263°
2026-05-05 14:29 48.38060 11.99737 3772 ft 156 kts 262°
2026-05-05 14:30 48.37941 11.98184 3563 ft 147 kts 263°
2026-05-05 14:30 48.37834 11.96657 3400 ft 147 kts 262°
2026-05-05 14:30 48.37712 11.95138 3207 ft 144 kts 262°
2026-05-05 14:30 48.37583 11.93643 3009 ft 142 kts 262°
2026-05-05 14:31 48.37468 11.92164 2770 ft 144 kts 263°
2026-05-05 14:31 48.37350 11.90661 2579 ft 147 kts 261°
2026-05-05 14:31 48.37234 11.89154 2432 ft 143 kts 264°
2026-05-05 14:31 48.37117 11.87652 2205 ft 143 kts 263°
2026-05-05 14:32 48.37002 11.86197 2007 ft 138 kts 264°
2026-05-05 14:32 48.36888 11.84770 1869 ft 138 kts 263°
2026-05-05 14:32 48.36775 11.83324 1700 ft 140 kts 265°
2026-05-05 14:32 48.36666 11.81880 1518 ft 137 kts 265°
2026-05-05 14:33 48.36569 11.80574 1484 ft 115 kts 263°
2026-05-05 14:33 48.36490 11.79560 1484 ft 80 kts 263°
2026-05-05 14:33 48.36435 11.79027 1475 ft 34 kts 249°
2026-05-05 14:33 48.36324 11.78753 1484 ft 16 kts 231°
2026-05-05 14:34 48.36281 11.78668 1475 ft 0 kts 233°
2026-05-05 14:34 48.36269 11.78643 1472 ft 11 kts 233°
2026-05-05 14:35 48.36195 11.78493 1479 ft 20 kts 234°
2026-05-05 14:35 48.36151 11.78401 1482 ft 11 kts 234°
2026-05-05 14:35 48.36123 11.78302 1479 ft 10 kts 261°
2026-05-05 14:35 48.36115 11.78198 1484 ft 10 kts 264°
2026-05-05 14:36 48.36108 11.78092 1484 ft 10 kts 263°
2026-05-05 14:36 48.36098 11.77975 1480 ft 12 kts 263°
2026-05-05 14:36 48.36088 11.77851 1482 ft 12 kts 263°
2026-05-05 14:36 48.36079 11.77747 1484 ft 9 kts 263°
2026-05-05 14:37 48.36057 11.77668 1479 ft 9 kts 210°
2026-05-05 14:37 48.35999 11.77669 1481 ft 8 kts 173°
2026-05-05 14:37 48.35942 11.77680 1480 ft 8 kts 173°
2026-05-05 14:37 48.35887 11.77689 1484 ft 8 kts 173°
2026-05-05 14:38 48.35833 11.77698 1484 ft 8 kts 174°
2026-05-05 14:38 48.35781 11.77707 1484 ft 8 kts 173°
2026-05-05 14:38 48.35720 11.77719 1484 ft 10 kts 173°
2026-05-05 14:38 48.35648 11.77731 1481 ft 11 kts 173°
2026-05-05 14:39 48.35559 11.77748 1471 ft 15 kts 172°
2026-05-05 14:39 48.35455 11.77766 1484 ft 15 kts 174°
2026-05-05 14:39 48.35356 11.77781 1484 ft 14 kts 174°
2026-05-05 14:39 48.35267 11.77794 1476 ft 8 kts 174°
2026-05-05 14:40 48.35243 11.77826 1484 ft 4 kts 94°
2026-05-05 14:40 48.35250 11.77869 1484 ft 4 kts 86°
2026-05-05 14:40 48.35254 11.77913 1484 ft 3 kts 83°
2026-05-05 14:40 48.35254 11.77917 1474 ft 0 kts 83°